Terminal Aerodrome Forecast
Issued by NWS

Home | Current Version | Previous Version | Text Only | Print | Product List | Glossary On
Versions: 1 2 3 4 5 6 7 8 9 10 11 12 13 14 15 16 17 18 19 20 21 22 23 24 25
000
FTUS46 KMFR 252350
TAFRBG
TAF
KRBG 252350Z 2600/2624 34003KT P6SM SKC
     FM260700 00000KT P6SM FEW010 BKN020 BKN035
     FM261200 17003KT P6SM -SHRASN SCT025 BKN040 OVC060
     FM261800 17006KT 4SM -RA BR BKN008 BKN015 OVC025
     FM262100 22009KT 5SM -SHRA BR BKN015 BKN025 OVC035=

USA.gov is the U.S. government's official web portal to all federal, state and local government web resources and services.